Zurück zum Katalog

CZ-6A DEB

AktivSSO
NORAD 54521·DEBRIS·🇨🇳 China

Gestartet Nov 11, 2022 von Taiyuan Satellite Launch Center

Loading…

Nächste Überflüge (nächste 24 Stunden)

TLE

AktuellSource: Space-Track

Epoche: Sep 14, 2026, 08:50 UTC

1 54521U 22151JZ  26257.36855229  .00000098  00000-0  92630-4 0  9991
2 54521  98.8969 225.2940 0137760 201.3819 158.1554 13.97459885195508

Verfolge CZ-6A DEB in Echtzeit mit AllMySat

Download on the App Store